Location: Rooftop Observatory
(39.0308°N, 87.1711°W)
Time: 13:45:09
(UTC-05:00)

Daily predictions for brighter satellites

Satellite Brightness Start Highest point End
(mag) Time Altitude Azimuth Time Altitude Azimuth Time Altitude Azimuth
Spot 2 Rocket 3.6 20:28:35 10° SSE 20:33:41 86° WSW 20:38:50 10° NNW
BREEZE-M DEB (TANK) 4.4 20:31:36 10° NNW 20:33:43 19° NNE 20:38:02 10° ENE
Helios 1B rocket 3.2 20:34:25 10° NNE 20:38:09 32° E 20:41:50 10° SSE
Tsikada Rocket 4.0 20:34:46 10° S 20:41:01 87° E 20:47:13 10° N
USA 215 4.3 20:36:48 10° E 20:42:38 36° NNE 20:48:29 10° NW
Cosmos 1315 Rocket 3.7 20:39:37 10° SSW 20:43:33 54° WNW 20:47:35 10° N
Lacrosse 4 Rocket 3.8 20:43:41 10° NNE 20:45:50 13° NE 20:47:59 10° ENE
Cosmos 1892 2.6 20:43:59 10° S 20:47:50 74° E 20:51:40 10° N
NOSS 3-2 (C) 3.7 20:43:18 10° SW 20:49:16 76° NW 20:55:49 10° NNE
USA 186 2.6 20:47:05 10° S 20:49:36 42° W 20:52:20 10° NNW
ISS -3.8 20:47:08 10° SW 20:50:23 88° NW 20:53:39 10° NE
Cosmos 1943 Rocket 3.0 20:46:57 10° SSE 20:51:42 29° ESE 20:56:26 10° NE
Cosmos 1634 Rocket 4.1 20:53:22 10° N 20:59:36 60° E 21:05:49 10° SSE
Envisat 3.3 20:55:39 10° S 21:00:42 70° WSW 21:05:47 10° NNW
Cosmos 1900 4.4 20:55:30 10° NNW 21:00:42 79° ENE 21:05:27 12° SSE
Tiangong 2 1.1 20:57:45 10° WNW 21:00:58 72° SSW 21:03:24 16° ESE
Spot 1 4.5 20:56:45 10° SSE 21:01:26 62° ENE 21:06:23 10° N
TIMED 4.5 20:58:51 10° S 21:03:09 63° ESE 21:07:29 10° NNE
CENTAUR R/B 2.6 20:58:05 10° S 21:03:42 48° ESE 21:10:01 10° NE
Cosmos 1340 4.3 21:04:20 10° NNE 21:07:06 19° ENE 21:08:45 15° ESE
Molniya-1 1.9 21:05:40 10° SW 21:07:30 89° ESE 21:09:05 10° NE
COSMOS 2455 2.9 21:03:15 10° SSW 21:09:15 90° ESE 21:15:18 10° NNE
Helios 1A 3.0 21:06:04 10° SSE 21:10:15 89° NE 21:14:29 10° NNW
SPOT 5 4.2 21:08:10 14° ESE 21:11:44 28° ENE 21:16:13 10° N
CZ-4B DEB 2.5 21:09:44 16° SSE 21:11:55 64° ENE 21:14:49 10° N
Cosmos 2369 Rocket 2.2 21:07:28 10° SSW 21:13:06 83° ESE 21:18:50 10° NNE
Cosmos 1125 Rocket 3.7 21:10:11 10° S 21:15:14 51° ESE 21:20:18 10° NNE
Resurs 01 Rocket 3.9 21:13:50 10° SSW 21:17:21 23° W 21:20:54 10° NW
SAR-Lupe-4 3.5 21:17:05 17° SSE 21:19:43 69° ENE 21:23:18 10° N
Cosmos 1606 3.1 21:18:13 10° N 21:21:50 42° E 21:23:47 23° SE
Lacrosse 5 rocket 1.4 21:19:29 10° SW 21:23:02 64° NW 21:26:39 10° NE
Shenzhou-11 Module 3.0 21:21:34 10° W 21:24:26 35° SSW 21:25:36 25° SSE
Cosmos 1346 Rocket 3.8 21:20:59 10° NNW 21:24:47 45° W 21:28:36 10° SSW
YAOGAN 6 3.2 21:23:55 10° S 21:27:32 57° W 21:31:11 10° NNW
Cosmos 1939 Rocket 4.3 21:26:15 10° SSW 21:30:07 38° W 21:33:59 10° NNW
Cosmos 2279 Rocket 4.0 21:27:12 10° N 21:33:25 65° E 21:38:02 19° SSE
ATLAS 5 CENTAUR R/B 2.9 21:31:20 10° NNW 21:37:12 51° NE 21:41:08 23° ESE
MetOp-B 4.1 21:35:41 21° SSE 21:39:20 71° ENE 21:44:41 10° N
Okean 1-7 3.1 21:35:13 10° N 21:39:39 81° W 21:42:46 19° S
Meteor 1-27 Rocket 4.1 21:34:53 10° N 21:40:25 47° ENE 21:43:17 26° SE
Meteor 1-10 Rocket 4.3 21:35:08 10° N 21:41:07 82° E 21:45:26 19° SSE
SAR-Lupe-1 4.2 21:39:08 23° S 21:41:12 72° WSW 21:44:47 10° NNW
GPS 2-04 Rocket1 2.8 21:37:39 10° W 21:41:13 45° S 21:42:02 37° SSE
Aureole 3 3.4 21:40:46 11° SSW 21:43:38 50° W 21:46:33 10° N
H-2A R/B 2.7 21:42:09 25° SE 21:44:47 43° ENE 21:49:49 10° N
Meteor 2-6 Rocket 4.3 21:43:58 10° N 21:49:57 89° E 21:54:03 22° S
Cosmos 1656 Rocket 4.1 21:47:59 27° SSE 21:50:16 39° ESE 21:55:22 10° NE
Cosmos 158 Rocket 3.7 21:45:31 10° NNW 21:50:25 80° ENE 21:52:44 31° SSE
ARGOS 3.1 21:47:36 26° SSE 21:50:45 75° ENE 21:56:07 10° N
Cosmos 1408 3.2 21:52:26 14° SSW 21:55:28 55° W 21:59:09 10° N
DNEPR-1 R/B 4.3 21:52:46 10° SW 21:58:01 63° WNW 22:02:31 10° NNE
Cosmos 1782 3.6 21:58:52 10° NNW 22:02:43 47° W 22:04:51 23° SSW
Cosmos 1733 Rocket 3.0 22:01:46 42° SSE 22:03:00 62° E 22:07:17 10° NNE
Cosmos 1825 3.2 22:03:11 14° SSW 22:06:11 43° W 22:09:49 10° N
ERS-1 Rocket 3.7 22:03:32 19° SSW 22:06:58 49° W 22:11:52 10° NNW
SL-08 RB Rocket 3.7 22:07:02 38° SSE 22:08:49 89° WSW 22:13:31 10° NNW
Nimbus 7 Rocket 4.3 22:06:13 10° NNE 22:12:06 71° ESE 22:15:18 28° S
Cosmos 1048 Rocket 4.4 22:12:27 10° NNW 22:17:41 59° WSW 22:19:56 32° S
Landsat 7 4.0 22:17:28 48° ESE 22:18:26 58° ENE 22:23:07 10° N
Cosmos 1862 3.9 22:19:33 31° SW 22:21:11 55° W 22:25:06 10° N
Cosmos 2227 Rocket 4.3 22:19:41 10° NNE 22:22:26 14° NE 22:24:44 11° ENE
Meteor 2-20 4.4 22:20:24 38° SSE 22:22:45 66° E 22:28:48 10° NNE
Lacrosse 4 Rocket 1.5 22:20:37 10° NNW 22:25:07 75° WSW 22:25:48 60° S
USA 215 3.2 22:22:28 38° SE 22:25:16 77° SW 22:31:51 10° NW
ISS -0.7 22:25:07 10° WNW 22:27:15 16° NNW 22:29:23 10° NNE
OAO 3 Copernicus 4.4 22:23:36 10° WSW 22:28:15 51° S 22:28:15 51° S
Cosmos 2026 Rocket 4.5 22:28:05 38° ESE 22:28:58 40° E 22:34:43 10° NNE
Cosmos 2219 3.9 22:23:36 10° N 22:29:00 40° ENE 22:30:23 34° E
ATLAS CENTAUR R/B 3.3 22:36:09 18° NE 22:36:09 18° NE 22:37:18 10° NE
Terra 1.9 22:33:08 55° E 22:33:36 57° ENE 22:38:16 10° N
Cosmos 1812 4.4 22:30:57 10° NNE 22:33:20 24° NE 22:33:20 24° NE
BREEZE-M DEB (TANK) 3.9 22:36:03 39° E 22:36:03 39° E 22:43:49 10° ENE
Cosmos 1943 Rocket 3.6 22:30:08 10° SW 22:35:16 37° WNW 22:40:24 10° N
CARTOSAT-1 3.6 22:36:19 61° ENE 22:36:19 61° ENE 22:40:36 10° N
DMSP B5D2-2 4.0 22:31:44 10° NNE 22:36:59 90° E 22:38:33 47° SSW
Cosmos 2251 Rocket 3.6 22:35:09 10° N 22:40:20 58° ENE 22:40:56 54° E
Cosmos 1674 Rocket 3.5 22:37:03 10° N 22:41:21 75° W 22:41:35 72° SW
Cosmos 1378 Rocket 3.8 22:37:54 10° N 22:42:02 57° ENE 22:42:02 57° ENE
SPOT 1/Viking Rocket 4.0 22:41:31 40° SSW 22:43:03 55° W 22:48:11 10° NNW
Cosmos 2344 3.9 22:35:45 10° SW 22:43:20 66° NW 22:51:49 10° NNE
Cosmos 1437 4.2 22:41:13 10° N 22:43:12 34° N 22:43:12 34° N
SPOT 5 4.3 22:47:25 26° SW 22:49:36 36° W 22:54:29 10° NNW
H-2A R/B 2.6 22:53:59 48° NE 22:53:59 48° NE 22:57:19 10° N
Cosmos 1092 Rocket 4.0 22:51:58 40° SSW 22:54:18 74° W 23:00:27 10° N
CENTAUR R/B 4.2 22:49:04 10° WSW 22:54:33 33° NW 23:00:44 10° NNE
Cosmos 405 Rocket 4.3 22:51:49 10° N 22:53:54 27° NNE 22:53:54 27° NNE
GEOS 3 Rocket 3.5 22:54:47 68° ESE 22:55:23 77° NE 23:00:37 10° NNW
Meteor 1-18 Rocket 4.5 22:52:41 10° N 22:58:19 54° ENE 22:58:43 53° E
Cosmos 1627 Rocket 4.4 23:01:30 59° S 23:02:47 85° E 23:09:09 10° N
Milstar 3 3.6 22:55:23 10° WSW 23:03:20 38° SSW 23:03:20 38° SSW
Okean 3 3.9 23:00:14 10° NNW 23:03:50 59° NW 23:03:50 59° NW
IGS 5A 4.0 23:05:43 56° WNW 23:05:43 56° WNW 23:09:18 10° NNW
Spot 4 4.0 23:09:14 63° NE 23:09:14 63° NE 23:13:40 10° N
Cosmos 1553 Rocket 4.3 23:04:43 10° N 23:10:54 51° ENE 23:11:22 50° E
CZ-4 R/B 4.0 23:07:49 10° NNE 23:11:47 64° NNE 23:11:47 64° NNE
Cosmos 1908 Rocket 4.4 23:15:40 46° W 23:15:43 46° W 23:20:01 10° N
Cosmos 2297 Rocket 3.5 23:12:43 10° N 23:17:35 28° ENE 23:18:14 27° ENE
ATLAS 5 CENTAUR R/B 3.6 23:16:29 10° NW 23:21:46 30° WSW 23:22:41 29° SW
Cosmos 1867 3.7 23:17:34 10° NW 23:22:44 61° WSW 23:22:44 61° WSW
H-2A R/B 3.9 23:22:47 20° WSW 23:24:19 23° W 23:28:30 10° NW
Okean 2 Rocket 3.9 23:25:49 46° NNE 23:25:49 46° NNE 23:28:58 10° N
CZ-2C R/B 3.9 23:35:41 40° NE 23:35:41 40° NE 23:39:42 10° N
Cosmos 2266 Rocket 4.4 23:40:53 50° ENE 23:40:53 50° ENE 23:46:20 10° NNE
Cosmos 2082 4.3 23:37:07 10° N 23:42:35 45° ENE 23:42:35 45° ENE
Cosmos 2278 4.3 23:45:04 46° ENE 23:45:04 46° ENE 23:49:17 10° NNE
CZ-4B R/B 3.9 23:40:42 10° N 23:45:06 57° NW 23:45:06 57° NW
